TimeCST,TemperatureF,Dew PointF,Humidity,Sea Level PressureIn,VisibilityMPH,Wind Direction,Wind SpeedMPH,Gust SpeedMPH,PrecipitationIn,Events,Conditions,WindDirDegrees,DateUTC
12:05 AM,33.1,32.0,96,30.36,1.5,Calm,Calm,-,N/A,,Clear,0,2012-11-16 06:05:00
12:20 AM,32.0,30.9,96,30.36,3.0,Calm,Calm,-,N/A,,Clear,0,2012-11-16 06:20:00
12:53 AM,32.0,30.0,92,30.35,2.0,Calm,Calm,-,N/A,,Clear,0,2012-11-16 06:53:00
1:09 AM,30.9,30.0,96,30.35,1.2,East,3.5,-,N/A,,Clear,90,2012-11-16 07:09:00
1:15 AM,30.0,28.9,96,30.35,3.0,ESE,4.6,-,N/A,,Clear,110,2012-11-16 07:15:00
1:53 AM,30.9,30.0,96,30.36,7.0,Calm,Calm,-,N/A,,Clear,0,2012-11-16 07:53:00
2:04 AM,30.9,30.0,96,30.37,1.5,Calm,Calm,-,N/A,,Clear,0,2012-11-16 08:04:00
2:13 AM,30.0,30.0,100,30.37,0.5,Calm,Calm,-,N/A,Fog,Light Freezing Fog,0,2012-11-16 08:13:00
2:32 AM,30.0,28.0,92,30.37,1.0,Calm,Calm,-,N/A,,Clear,0,2012-11-16 08:32:00
2:40 AM,30.0,28.9,96,30.37,0.5,Calm,Calm,-,N/A,Fog,Light Freezing Fog,0,2012-11-16 08:40:00
2:53 AM,30.9,30.0,96,30.37,0.5,Calm,Calm,-,N/A,Fog,Light Freezing Fog,0,2012-11-16 08:53:00
3:06 AM,28.9,28.9,100,30.37,0.2,ENE,3.5,-,N/A,Fog,Light Freezing Fog,70,2012-11-16 09:06:00
3:15 AM,30.0,28.9,96,30.37,1.0,Calm,Calm,-,N/A,,Clear,0,2012-11-16 09:15:00
3:34 AM,30.0,28.9,96,30.37,0.5,Calm,Calm,-,N/A,Fog,Light Freezing Fog,0,2012-11-16 09:34:00
3:49 AM,30.2,28.4,93,30.37,1.5,Calm,Calm,-,N/A,,Clear,0,2012-11-16 09:49:00
3:53 AM,30.0,28.0,92,30.37,2.5,Calm,Calm,-,N/A,,Clear,0,2012-11-16 09:53:00
4:08 AM,30.0,28.0,92,30.37,3.0,Calm,Calm,-,N/A,,Clear,0,2012-11-16 10:08:00
4:13 AM,28.9,27.0,92,30.37,1.8,Calm,Calm,-,N/A,,Clear,0,2012-11-16 10:13:00
4:24 AM,28.9,27.0,92,30.36,0.5,Calm,Calm,-,N/A,Fog,Light Freezing Fog,0,2012-11-16 10:24:00
4:37 AM,28.0,27.0,96,30.37,0.2,ENE,3.5,-,N/A,Fog,Light Freezing Fog,70,2012-11-16 10:37:00
4:48 AM,28.4,28.4,100,30.37,1.0,Calm,Calm,-,N/A,,Clear,0,2012-11-16 10:48:00
4:53 AM,28.9,28.0,96,30.37,1.0,Calm,Calm,-,N/A,,Clear,0,2012-11-16 10:53:00
5:00 AM,28.9,28.0,96,30.37,0.5,Calm,Calm,-,N/A,Fog,Light Freezing Fog,0,2012-11-16 11:00:00
5:12 AM,28.9,28.0,96,30.38,2.0,Calm,Calm,-,N/A,,Clear,0,2012-11-16 11:12:00
5:20 AM,30.0,28.0,92,30.38,5.0,Calm,Calm,-,N/A,,Clear,0,2012-11-16 11:20:00
5:45 AM,28.9,28.0,96,30.38,1.8,Calm,Calm,-,N/A,,Clear,0,2012-11-16 11:45:00
5:53 AM,28.0,28.0,100,30.38,1.2,Calm,Calm,-,N/A,,Clear,0,2012-11-16 11:53:00
6:01 AM,28.0,27.0,96,30.38,0.5,Calm,Calm,-,N/A,Fog,Light Freezing Fog,0,2012-11-16 12:01:00
6:11 AM,28.9,27.0,92,30.38,2.0,Calm,Calm,-,N/A,,Clear,0,2012-11-16 12:11:00
6:19 AM,28.9,27.0,92,30.38,4.0,Calm,Calm,-,N/A,,Clear,0,2012-11-16 12:19:00
6:51 AM,28.4,26.6,93,30.39,1.5,Calm,Calm,-,N/A,,Clear,0,2012-11-16 12:51:00
6:53 AM,28.9,27.0,92,30.40,1.5,Calm,Calm,-,N/A,,Clear,0,2012-11-16 12:53:00
7:12 AM,27.0,26.1,96,30.40,3.0,Calm,Calm,-,N/A,,Clear,0,2012-11-16 13:12:00
7:53 AM,30.9,30.0,96,30.42,6.0,Calm,Calm,-,N/A,,Clear,0,2012-11-16 13:53:00
8:53 AM,42.1,36.0,79,30.43,9.0,Calm,Calm,-,N/A,,Clear,0,2012-11-16 14:53:00
9:53 AM,53.1,37.9,57,30.43,10.0,Calm,Calm,-,N/A,,Clear,0,2012-11-16 15:53:00
10:53 AM,57.9,30.9,36,30.42,10.0,ESE,9.2,-,N/A,,Clear,110,2012-11-16 16:53:00
11:53 AM,60.1,28.9,31,30.39,10.0,ESE,11.5,-,N/A,,Clear,120,2012-11-16 17:53:00
12:53 PM,63.0,28.9,28,30.35,10.0,Calm,Calm,-,N/A,,Clear,0,2012-11-16 18:53:00
1:53 PM,64.0,28.0,26,30.33,10.0,Calm,Calm,-,N/A,,Clear,0,2012-11-16 19:53:00
2:53 PM,64.9,27.0,24,30.32,10.0,ESE,4.6,-,N/A,,Clear,120,2012-11-16 20:53:00
3:53 PM,64.0,27.0,25,30.32,10.0,East,6.9,-,N/A,,Clear,100,2012-11-16 21:53:00
4:53 PM,60.1,28.0,30,30.32,10.0,SE,5.8,-,N/A,,Clear,130,2012-11-16 22:53:00
5:53 PM,48.9,32.0,52,30.34,10.0,Calm,Calm,-,N/A,,Clear,0,2012-11-16 23:53:00
6:53 PM,44.1,33.1,65,30.35,10.0,Calm,Calm,-,N/A,,Clear,0,2012-11-17 00:53:00
7:53 PM,39.0,33.1,79,30.36,10.0,Calm,Calm,-,N/A,,Clear,0,2012-11-17 01:53:00
8:53 PM,36.0,32.0,86,30.38,10.0,Calm,Calm,-,N/A,,Clear,0,2012-11-17 02:53:00
9:53 PM,36.0,32.0,86,30.38,10.0,East,3.5,-,N/A,,Clear,80,2012-11-17 03:53:00
10:53 PM,34.0,30.9,89,30.39,8.0,Calm,Calm,-,N/A,,Clear,0,2012-11-17 04:53:00
11:53 PM,33.1,30.0,89,30.39,7.0,Calm,Calm,-,N/A,,Clear,0,2012-11-17 05:53:00